Tracking 29892 objects as of 21-Nov-2024
HD Live streaming from Space Station
objects crossing your sky now

COSMOS 1275 DEB

Track COSMOS 1275 DEB now!
10-day predictions


NORAD ID: 14364
Int'l Code: 1981-053JA
Perigee: 810.7 km
Apogee: 857.3 km
Inclination: 82.8 °
Period: 101.4 minutes
Semi major axis: 7204 km
RCS: 0.0121 m2 (small)
Launch date: June 4, 1981
Source: Commonwealth of Independent States (former USSR) (CIS)
Launch site: PLESETSK MISSILE AND SPACE COMPLEX (PKMTR)

Note: This is SATELLITE DEBRIS
Your satellite tracking list
Your tracking list is empty




NASA's NSSDC Master Catalog

Two Line Element Set (TLE):
1 14364U 81053HX  24325.35592205  .00006814  00000-0  32063-2 0  9997
2 14364  82.7812  25.7031 0032361 156.0679 204.2014 14.19558869146005
Source of the keplerian elements: AFSPC